West Chester Brandywine Airpo, PA

7:43 PM EST on December 15, 2019 (GMT -0500)
West Chester Brandywine Airpo

Weather History for KOQN - November, 2019

Change the Weather History Date:

Thursday, November 14, 2019

  Actual Average (WUND) Record (WUND)
Temperature  
Mean Temperature 32 °F -  
Max Temperature 42 °F - - (-1)
Min Temperature 23 °F - - (-1)
Degree Days  
Heating Degree Days 32    
Moisture  
Dew Point 22 °F    
Average Humidity 65    
Maximum Humidity 81    
Minimum Humidity 42    
Precipitation  
Precipitation 0.00 in - - ()
Sea Level Pressure  
Sea Level Pressure 30.36 in    
Wind  
Wind Speed 1 mph (SSW)    
Max Wind Speed 9 mph    
Max Gust Speed -    
Visibility 10 miles    
Events      
Averages and records for this station are not official NWS values.
T = Trace of Precipitation, MM = Missing Value Source: NWS Daily Summary

Daily Weather History Graph

Daily Weather History Graph

Search for Another Location

Airport or City:

Astronomy

Nov. 14, 2019 Rise Set
Actual Time 6:46 AM EST 4:46 PM EST
Civil Twilight 6:17 AM EST 5:15 PM EST
Nautical Twilight 5:44 AM EST 5:48 PM EST
Astronomical Twilight 5:12 AM EST 6:20 PM EST
Moon 6:31 PM EST (11/14) 8:39 AM EST (11/14)
Length of Visible Light 10h 58m
Length of Day
10h 00m
Waning Gibbous, 95% of the Moon is Illuminated
Nov 14
Waning Gibbous
Nov 19
Last Quarter
Nov 26
New
Dec 4
First Quarter
Dec 12
Full

Hourly Weather History & Observations

Time (EST) Temp. Windchill Dew Point Humidity Pressure Visibility Wind Dir Wind Speed Gust Speed Precip Events Conditions
12:15 AM 28.4 °F - 17.6 °F 64% 30.42 in 10.0 mi Calm Calm - N/A   Unknown
12:35 AM 28.4 °F - 17.6 °F 64% 30.41 in 10.0 mi Calm Calm - N/A   Unknown
12:55 AM 28.4 °F - 17.6 °F 64% 30.42 in 10.0 mi Calm Calm - N/A   Unknown
1:15 AM 26.6 °F - 17.6 °F 69% 30.42 in 10.0 mi Calm Calm - N/A   Unknown
1:35 AM 26.6 °F - 19.4 °F 74% 30.41 in 10.0 mi Calm Calm - N/A   Unknown
1:55 AM 26.6 °F - 19.4 °F 74% 30.41 in 10.0 mi Calm Calm - N/A   Unknown
2:15 AM 26.6 °F - 19.4 °F 74% 30.41 in 10.0 mi Calm Calm - N/A   Unknown
2:35 AM 24.8 °F - 17.6 °F 74% 30.41 in 10.0 mi Calm Calm - N/A   Unknown
2:55 AM 24.8 °F - 19.4 °F 80% 30.40 in 10.0 mi Calm Calm - N/A   Unknown
3:15 AM 26.6 °F - 19.4 °F 74% 30.40 in 10.0 mi Calm Calm - N/A   Unknown
3:35 AM 24.8 °F 20.5 °F 17.6 °F 74% 30.40 in 10.0 mi East 3.5 mph - N/A   Unknown
3:55 AM 23.0 °F - 17.6 °F 80% 30.40 in 10.0 mi Calm Calm - N/A   Unknown
4:15 AM 23.0 °F - 17.6 °F 80% 30.39 in 10.0 mi Calm Calm - N/A   Unknown
4:35 AM 23.0 °F - 17.6 °F 80% 30.39 in 10.0 mi Calm Calm - N/A   Unknown
4:55 AM 24.8 °F - 17.6 °F 74% 30.40 in 10.0 mi Calm Calm - N/A   Unknown
5:15 AM 23.0 °F - 17.6 °F 80% 30.40 in 10.0 mi Calm Calm - N/A   Unknown
5:55 AM 23.0 °F - 17.6 °F 80% 30.40 in 10.0 mi Calm Calm - N/A   Unknown
6:15 AM 23.0 °F - 17.6 °F 80% 30.41 in 10.0 mi Calm Calm - N/A   Unknown
6:35 AM 23.0 °F - 17.6 °F 80% 30.41 in 10.0 mi Calm Calm - N/A   Unknown
6:55 AM 23.0 °F - 17.6 °F 80% 30.41 in 10.0 mi Calm Calm - N/A   Unknown
7:15 AM 23.0 °F - 17.6 °F 80% 30.42 in 10.0 mi Calm Calm - N/A   Unknown
7:35 AM 26.6 °F - 17.6 °F 69% 30.42 in 10.0 mi Calm Calm - N/A   Unknown
7:55 AM 28.4 °F - 17.6 °F 64% 30.43 in 10.0 mi Calm Calm - N/A   Unknown
8:15 AM 28.4 °F - 19.4 °F 69% 30.43 in 10.0 mi Calm Calm - N/A   Unknown
8:35 AM 30.2 °F - 19.4 °F 64% 30.43 in 10.0 mi Calm Calm - N/A   Unknown
8:55 AM 30.2 °F - 19.4 °F 64% 30.42 in 10.0 mi Calm Calm - N/A   Unknown
9:15 AM 32.0 °F - 21.2 °F 64% 30.42 in 10.0 mi Calm Calm - N/A   Unknown
9:35 AM 33.8 °F - 23.0 °F 65% 30.42 in 10.0 mi Calm Calm - N/A   Unknown
9:55 AM 35.6 °F 32.8 °F 23.0 °F 60% 30.42 in 10.0 mi South 3.5 mph - N/A   Unknown
10:15 AM 35.6 °F 30.7 °F 23.0 °F 60% 30.41 in 10.0 mi South 5.8 mph - N/A   Unknown
10:35 AM 37.4 °F 34.9 °F 24.8 °F 60% 30.40 in 10.0 mi South 3.5 mph - N/A   Unknown
10:55 AM 37.4 °F - 24.8 °F 60% 30.40 in 10.0 mi Calm Calm - N/A   Unknown
11:15 AM 37.4 °F - 23.0 °F 56% 30.39 in 10.0 mi Calm Calm - N/A   Unknown
11:35 AM 37.4 °F 33.8 °F 23.0 °F 56% 30.38 in 10.0 mi SSW 4.6 mph - N/A   Unknown
11:55 AM 39.2 °F 35.9 °F 23.0 °F 52% 30.36 in 10.0 mi South 4.6 mph - N/A   Unknown
12:15 PM 41.0 °F 36.4 °F 23.0 °F 49% 30.35 in 10.0 mi South 6.9 mph - N/A   Unknown
12:35 PM 42.8 °F 37.5 °F 21.2 °F 42% 30.35 in 10.0 mi SSW 9.2 mph - N/A   Unknown
12:55 PM 42.8 °F 41.1 °F 21.2 °F 42% 30.34 in 10.0 mi SSW 3.5 mph - N/A   Unknown
1:15 PM 42.8 °F 39.3 °F 23.0 °F 46% 30.34 in 10.0 mi SSW 5.8 mph - N/A   Unknown
1:35 PM 42.8 °F 39.3 °F 21.2 °F 42% 30.33 in 10.0 mi South 5.8 mph - N/A   Unknown
1:55 PM 41.0 °F 39.0 °F 21.2 °F 45% 30.32 in 10.0 mi South 3.5 mph - N/A   Unknown
2:15 PM 41.0 °F 37.1 °F 21.2 °F 45% 30.32 in 10.0 mi WSW 5.8 mph - N/A   Unknown
2:35 PM 41.0 °F 39.0 °F 21.2 °F 45% 30.32 in 10.0 mi SSW 3.5 mph - N/A   Unknown
2:55 PM 42.8 °F - 21.2 °F 42% 30.31 in 10.0 mi Calm Calm - N/A   Unknown
3:35 PM 42.8 °F 41.1 °F 21.2 °F 42% 30.31 in 10.0 mi SW 3.5 mph - N/A   Unknown
3:55 PM 41.0 °F - 23.0 °F 49% 30.32 in 10.0 mi Calm Calm - N/A   Unknown
4:15 PM 41.0 °F 39.0 °F 23.0 °F 49% 30.32 in 10.0 mi SSW 3.5 mph - N/A   Unknown
4:35 PM 41.0 °F - 23.0 °F 49% 30.32 in 10.0 mi Calm Calm - N/A   Unknown
4:55 PM 39.2 °F - 23.0 °F 52% 30.31 in 10.0 mi Calm Calm - N/A   Unknown
5:15 PM 39.2 °F - 24.8 °F 56% 30.31 in 10.0 mi Calm Calm - N/A   Unknown
5:55 PM 37.4 °F - 24.8 °F 60% 30.31 in 10.0 mi Calm Calm - N/A   Unknown
6:15 PM 37.4 °F - 24.8 °F 60% 30.30 in 10.0 mi Calm Calm - N/A   Unknown
6:35 PM 37.4 °F - 24.8 °F 60% 30.31 in 10.0 mi Calm Calm - N/A   Unknown
6:55 PM 35.6 °F - 24.8 °F 65% 30.31 in 10.0 mi Calm Calm - N/A   Unknown
7:15 PM 35.6 °F - 24.8 °F 65% 30.31 in 10.0 mi Calm Calm - N/A   Unknown
7:35 PM 35.6 °F - 24.8 °F 65% 30.31 in 10.0 mi Calm Calm - N/A   Unknown
7:55 PM 35.6 °F - 24.8 °F 65% 30.30 in 10.0 mi Calm Calm - N/A   Unknown
8:15 PM 35.6 °F - 26.6 °F 70% 30.31 in 10.0 mi Calm Calm - N/A   Unknown
8:35 PM 35.6 °F - 26.6 °F 70% 30.30 in 10.0 mi Calm Calm - N/A   Unknown
9:15 PM 35.6 °F 32.8 °F 28.4 °F 75% 30.30 in 10.0 mi SW 3.5 mph - N/A   Unknown
9:35 PM 35.6 °F 32.8 °F 28.4 °F 75% 30.30 in 10.0 mi West 3.5 mph - N/A   Unknown
9:55 PM 35.6 °F 32.8 °F 28.4 °F 75% 30.31 in 10.0 mi WSW 3.5 mph - N/A   Unknown
10:15 PM 35.6 °F - 28.4 °F 75% 30.32 in 10.0 mi Calm Calm - N/A   Unknown
10:35 PM 33.8 °F - 28.4 °F 81% 30.31 in 10.0 mi Calm Calm - N/A   Unknown
10:55 PM 33.8 °F - 26.6 °F 75% 30.31 in 10.0 mi Calm Calm - N/A   Unknown
11:15 PM 32.0 °F - 26.6 °F 80% 30.30 in 10.0 mi Calm Calm - N/A   Unknown
11:35 PM 32.0 °F - 26.6 °F 80% 30.30 in 10.0 mi Calm Calm - N/A   Unknown
11:55 PM 32.0 °F - 26.6 °F 80% 30.29 in 10.0 mi Calm Calm - N/A   Unknown